• In India
  • List of Countries
  • For 7 days
  • Water Temperature
  • Satellite Maps
  • Weather Map
  • Weather Widgets
  • user-avatar
    Login

    Hourly Weather Wiesbaden

    Today, 21 September, Friday

    Time Temperature Precipitation Wind Pressure Humidity
    00:00 +20°C° 0 mm 2 mps 745 mmHg 76%
    01:00 +19°C° 0 mm 2 mps 745 mmHg 78%
    02:00 +19°C° 0 mm 2 mps 745 mmHg 78%
    03:00 +19°C° 0 mm 2 mps 744 mmHg 77%
    04:00 +19°C° 0 mm 3 mps 744 mmHg 77%
    05:00 +19°C° 0 mm 3 mps 744 mmHg 75%
    06:00 +20°C° 0 mm 3 mps 743 mmHg 73%
    07:00 +20°C° 0 mm 4 mps 743 mmHg 71%
    08:00 +21°C° 0 mm 5 mps 743 mmHg 66%
    09:00 +22°C° 0 mm 6 mps 743 mmHg 60%
    10:00 +23°C° 0 mm 7 mps 743 mmHg 54%
    11:00 +22°C° 0.6 mm 7 mps 743 mmHg 59%
    12:00 +21°C° 0.6 mm 7 mps 744 mmHg 65%
    13:00 +20°C° 0.6 mm 7 mps 744 mmHg 71%
    14:00 +19°C° 0.5 mm 6 mps 745 mmHg 67%
    15:00 +17°C° 0.5 mm 5 mps 745 mmHg 64%
    16:00 +16°C° 0.5 mm 5 mps 745 mmHg 61%
    17:00 +17°C° 0 mm 4 mps 746 mmHg 59%
    18:00 +15°C° 0 mm 4 mps 747 mmHg 57%
    19:00 +14°C° 0 mm 3 mps 748 mmHg 55%
    20:00 +14°C° 0 mm 4 mps 748 mmHg 56%
    21:00 +13°C° 0 mm 4 mps 749 mmHg 57%
    22:00 +12°C° 0 mm 4 mps 750 mmHg 59%
    23:00 +12°C° 0 mm 4 mps 750 mmHg 60%

    Tomorrow, 22 September, Saturday

    Time Temperature Precipitation Wind Pressure Humidity
    00:00 +12°C° 0 mm 4 mps 750 mmHg 61%
    01:00 +11°C° 0 mm 4 mps 751 mmHg 63%
    02:00 +11°C° 0 mm 4 mps 751 mmHg 65%
    03:00 +11°C° 0 mm 4 mps 751 mmHg 68%
    04:00 +10°C° 0 mm 3 mps 752 mmHg 70%
    05:00 +10°C° 0 mm 3 mps 752 mmHg 71%
    06:00 +10°C° 0 mm 3 mps 752 mmHg 72%
    07:00 +10°C° 0 mm 3 mps 752 mmHg 73%
    08:00 +11°C° 0 mm 3 mps 752 mmHg 69%
    09:00 +13°C° 0 mm 4 mps 753 mmHg 64%
    10:00 +14°C° 0 mm 4 mps 753 mmHg 60%
    11:00 +15°C° 0 mm 4 mps 753 mmHg 56%
    12:00 +16°C° 0 mm 5 mps 753 mmHg 52%
    13:00 +17°C° 0 mm 5 mps 753 mmHg 47%
    14:00 +17°C° 0 mm 5 mps 752 mmHg 47%
    15:00 +18°C° 0 mm 4 mps 752 mmHg 46%
    16:00 +18°C° 0 mm 4 mps 752 mmHg 45%
    17:00 +17°C° 0 mm 4 mps 752 mmHg 51%
    18:00 +16°C° 0 mm 3 mps 752 mmHg 56%
    19:00 +14°C° 0 mm 2 mps 753 mmHg 62%
    20:00 +14°C° 0 mm 2 mps 753 mmHg 64%
    21:00 +13°C° 0 mm 2 mps 753 mmHg 67%
    22:00 +13°C° 0 mm 1 mps 753 mmHg 70%
    23:00 +13°C° 0 mm 1 mps 753 mmHg 69%

    Day after tomorrow, 23 September, Sunday

    Time Temperature Precipitation Wind Pressure Humidity
    00:00 +13°C° 0 mm 1 mps 753 mmHg 69%
    01:00 +13°C° 0 mm 1 mps 753 mmHg 68%
    02:00 +13°C° 0.1 mm 1 mps 752 mmHg 70%
    03:00 +13°C° 0.1 mm 1 mps 752 mmHg 71%
    04:00 +13°C° 0.1 mm 1 mps 752 mmHg 72%
    05:00 +13°C° 0.2 mm 2 mps 751 mmHg 74%
    06:00 +13°C° 0.2 mm 2 mps 751 mmHg 76%
    07:00 +13°C° 0.2 mm 2 mps 750 mmHg 78%
    08:00 +12°C° 0.3 mm 3 mps 750 mmHg 79%
    09:00 +13°C° 0.3 mm 3 mps 749 mmHg 80%
    10:00 +13°C° 0.3 mm 4 mps 749 mmHg 81%
    11:00 +15°C° 0.1 mm 5 mps 748 mmHg 79%
    12:00 +17°C° 0.1 mm 5 mps 748 mmHg 77%
    13:00 +20°C° 0.1 mm 6 mps 747 mmHg 75%
    14:00 +20°C° 0 mm 6 mps 746 mmHg 74%
    15:00 +21°C° 0 mm 6 mps 745 mmHg 73%
    16:00 +22°C° 0 mm 6 mps 745 mmHg 72%
    17:00 +21°C° 0.8 mm 6 mps 744 mmHg 77%
    18:00 +21°C° 0.8 mm 5 mps 743 mmHg 81%
    19:00 +20°C° 0.8 mm 5 mps 742 mmHg 85%
    20:00 +20°C° 2.8 mm 5 mps 741 mmHg 86%
    21:00 +20°C° 2.8 mm 6 mps 740 mmHg 86%
    22:00 +20°C° 2.8 mm 7 mps 739 mmHg 87%
    23:00 +18°C° 2.1 mm 7 mps 738 mmHg 84%

    24 September, Monday

    Time Temperature Precipitation Wind Pressure Humidity
    00:00 +17°C° 2.1 mm 8 mps 738 mmHg 81%
    01:00 +16°C° 2.1 mm 8 mps 737 mmHg 78%
    02:00 +15°C° 0.4 mm 9 mps 739 mmHg 78%
    03:00 +13°C° 0.4 mm 9 mps 741 mmHg 78%
    04:00 +11°C° 0.4 mm 10 mps 743 mmHg 77%
    05:00 +10°C° 0 mm 9 mps 746 mmHg 76%
    06:00 +10°C° 0 mm 7 mps 749 mmHg 75%
    07:00 +9°C° 0 mm 5 mps 752 mmHg 74%
    08:00 +10°C° 0 mm 6 mps 753 mmHg 68%
    09:00 +11°C° 0 mm 6 mps 754 mmHg 62%
    10:00 +13°C° 0 mm 6 mps 756 mmHg 56%
    11:00 +13°C° 0 mm 6 mps 756 mmHg 52%
    12:00 +14°C° 0 mm 6 mps 757 mmHg 48%
    13:00 +14°C° 0 mm 6 mps 758 mmHg 45%
    14:00 +14°C° 0 mm 6 mps 758 mmHg 45%
    15:00 +14°C° 0 mm 5 mps 759 mmHg 46%
    16:00 +14°C° 0 mm 5 mps 759 mmHg 46%
    17:00 +13°C° 0 mm 4 mps 760 mmHg 51%
    18:00 +11°C° 0 mm 4 mps 760 mmHg 56%
    19:00 +10°C° 0 mm 3 mps 761 mmHg 61%
    20:00 +10°C° 0 mm 3 mps 762 mmHg 64%
    21:00 +9°C° 0 mm 2 mps 762 mmHg 67%
    22:00 +8°C° 0 mm 2 mps 763 mmHg 70%
    23:00 +8°C° 0 mm 2 mps 763 mmHg 72%

    25 September, Tuesday

    Time Temperature Precipitation Wind Pressure Humidity
    00:00 +7°C° 0 mm 2 mps 764 mmHg 75%
    01:00 +7°C° 0 mm 2 mps 764 mmHg 77%
    02:00 +7°C° 0 mm 2 mps 764 mmHg 79%
    03:00 +7°C° 0 mm 1 mps 764 mmHg 80%
    04:00 +7°C° 0 mm 1 mps 764 mmHg 82%
    05:00 +7°C° 0 mm 1 mps 764 mmHg 82%
    06:00 +7°C° 0 mm 1 mps 765 mmHg 83%
    07:00 +7°C° 0 mm 1 mps 765 mmHg 83%
    08:00 +9°C° 0 mm 1 mps 765 mmHg 74%
    09:00 +10°C° 0 mm 2 mps 765 mmHg 65%
    10:00 +13°C° 0 mm 2 mps 765 mmHg 57%
    11:00 +14°C° 0 mm 2 mps 765 mmHg 51%
    12:00 +15°C° 0 mm 2 mps 764 mmHg 46%
    13:00 +16°C° 0 mm 2 mps 764 mmHg 41%
    14:00 +17°C° 0 mm 2 mps 763 mmHg 41%
    15:00 +17°C° 0 mm 2 mps 763 mmHg 40%
    16:00 +17°C° 0 mm 2 mps 762 mmHg 40%
    17:00 +15°C° 0 mm 2 mps 762 mmHg 46%
    18:00 +13°C° 0 mm 1 mps 762 mmHg 51%
    19:00 +12°C° 0 mm 1 mps 762 mmHg 57%
    20:00 +11°C° 0 mm 1 mps 762 mmHg 60%
    21:00 +11°C° 0 mm 1 mps 762 mmHg 63%
    22:00 +10°C° 0 mm 1 mps 763 mmHg 66%
    23:00 +9°C° 0 mm 1 mps 762 mmHg 68%

    26 September, Wednesday

    Time Temperature Precipitation Wind Pressure Humidity
    00:00 +9°C° 0 mm 1 mps 762 mmHg 70%
    01:00 +9°C° 0 mm 1 mps 762 mmHg 72%
    02:00 +8°C° 0 mm 1 mps 762 mmHg 74%
    03:00 +8°C° 0 mm 1 mps 762 mmHg 75%
    04:00 +8°C° 0 mm 1 mps 762 mmHg 76%
    05:00 +8°C° 0 mm 1 mps 762 mmHg 76%
    06:00 +8°C° 0 mm 1 mps 762 mmHg 76%
    07:00 +8°C° 0 mm 1 mps 762 mmHg 76%
    08:00 +10°C° 0 mm 1 mps 762 mmHg 68%
    09:00 +12°C° 0 mm 1 mps 762 mmHg 60%
    10:00 +14°C° 0 mm 2 mps 762 mmHg 52%
    11:00 +16°C° 0 mm 2 mps 761 mmHg 48%
    12:00 +17°C° 0 mm 2 mps 761 mmHg 43%
    13:00 +19°C° 0 mm 2 mps 760 mmHg 38%
    14:00 +19°C° 0 mm 2 mps 760 mmHg 38%
    15:00 +19°C° 0 mm 2 mps 759 mmHg 38%
    16:00 +19°C° 0 mm 2 mps 759 mmHg 38%
    17:00 +17°C° 0 mm 2 mps 759 mmHg 43%
    18:00 +15°C° 0 mm 1 mps 759 mmHg 48%
    19:00 +13°C° 0 mm 1 mps 759 mmHg 54%
    20:00 +13°C° 0 mm 1 mps 759 mmHg 56%
    21:00 +12°C° 0 mm 1 mps 759 mmHg 59%
    22:00 +12°C° 0 mm 1 mps 758 mmHg 61%
    23:00 +11°C° 0 mm 1 mps 758 mmHg 63%
    Show more